Weather History for Middlesboro, KY

Change the Weather History Date:

Friday, January 18, 2013

  Actual Average (KLOZ) Record (KLOZ)
Temperature  
Mean Temperature 33 °F 35 °F  
Max Temperature 42 °F 45 °F 69 °F (1996)
Min Temperature 24 °F 26 °F -7 °F (1994)
Degree Days  
Heating Degree Days 32 30  
Month to date heating degree days 536  
Since 1 July heating degree days 2188  
Cooling Degree Days 0 0  
Month to date cooling degree days 0  
Year to date cooling degree days 0  
Moisture  
Dew Point 30 °F    
Average Humidity 91    
Maximum Humidity 100    
Minimum Humidity 66    
Precipitation  
Precipitation 0.00 in 0.11 in 1.18 in (2004)
Month to date precipitation 2.05  
Year to date precipitation 2.05  
Sea Level Pressure  
Sea Level Pressure 30.46 in    
Wind  
Wind Speed 1 mph (SSW)    
Max Wind Speed 6 mph    
Max Gust Speed -    
Visibility 7 miles    
Events Fog    
T = Trace of Precipitation, MM = Missing Value Source: NWS Daily Summary

Daily Weather History Graph

Daily Weather History Graph

Search for Another Location

Airport:

Trip Planner

Search our weather history database for the weather conditions in past years. The results will help you decide how hot, cold, wet, or windy it might be!

Date:

Astronomy

Jan. 18, 2013 Rise Set
Actual Time 6:45 AM CST 4:46 PM CST
Civil Twilight 6:17 AM CST 5:14 PM CST
Nautical Twilight 5:45 AM CST 5:45 PM CST
Astronomical Twilight 5:14 AM CST 6:16 PM CST
Moon 10:36 AM CST (1/18) No Moon Set
Length of Visible Light 10h 57m
Length of Day
10h 01m
Waxing Crescent, 47% of the Moon is Illuminated
Jan 18
Waxing Crescent
Jan 18
First Quarter
Jan 26
Full
Feb 3
Last Quarter
Feb 10
New

Hourly Weather History & Observations

Time (CST) Temp. Windchill Dew Point Humidity Pressure Visibility Wind Dir Wind Speed Gust Speed Precip Events Conditions
12:15 AM 26.6 °F - 24.8 °F 93% 30.37 in 0.2 mi Calm Calm - N/A Fog Light Freezing Fog
12:35 AM 24.8 °F - 24.8 °F 100% 30.38 in 0.5 mi Calm Calm - N/A Fog Light Freezing Fog
12:55 AM 24.8 °F - 24.8 °F 100% 30.40 in 0.2 mi Calm Calm - N/A Fog Light Freezing Fog
1:15 AM 24.8 °F - 23.0 °F 93% 30.40 in 0.2 mi Calm Calm - N/A Fog Light Freezing Fog
1:35 AM 24.8 °F - 24.8 °F 100% 30.41 in 0.5 mi Calm Calm - N/A Fog Light Freezing Fog
1:55 AM 26.6 °F - 24.8 °F 93% 30.41 in 0.8 mi Calm Calm - N/A   Overcast
2:15 AM 26.6 °F - 24.8 °F 93% 30.41 in 0.2 mi Calm Calm - N/A Fog Light Freezing Fog
2:35 AM 26.6 °F - 26.6 °F 100% 30.41 in 0.2 mi Calm Calm - N/A Fog Light Freezing Fog
2:55 AM 26.6 °F - 26.6 °F 100% 30.42 in 0.2 mi Calm Calm - N/A Fog Light Freezing Fog
3:15 AM 26.6 °F - 26.6 °F 100% 30.41 in 0.2 mi Calm Calm - N/A Fog Light Freezing Fog
3:35 AM 26.6 °F - 26.6 °F 100% 30.42 in 0.2 mi Calm Calm - N/A Fog Light Freezing Fog
3:55 AM 26.6 °F - 26.6 °F 100% 30.42 in 0.2 mi Calm Calm - N/A Fog Light Freezing Fog
4:15 AM 26.6 °F - 26.6 °F 100% 30.42 in 0.2 mi Calm Calm - N/A Fog Light Freezing Fog
4:55 AM 26.6 °F - 24.8 °F 93% 30.43 in 0.2 mi Calm Calm - N/A Fog Light Freezing Fog
5:15 AM 24.8 °F - 24.8 °F 100% 30.44 in 0.2 mi Calm Calm - N/A Fog Light Freezing Fog
5:35 AM 24.8 °F - 24.8 °F 100% 30.45 in 0.2 mi Calm Calm - N/A Fog Light Freezing Fog
5:55 AM 24.8 °F - 24.8 °F 100% 30.46 in 0.2 mi Calm Calm - N/A Fog Light Freezing Fog
6:15 AM 24.8 °F - 24.8 °F 100% 30.46 in 0.5 mi Calm Calm - N/A Fog Light Freezing Fog
6:35 AM 26.6 °F - 24.8 °F 93% 30.47 in 4.0 mi Calm Calm - N/A   Mostly Cloudy
6:55 AM 28.4 °F - 26.6 °F 93% 30.48 in 7.0 mi Calm Calm - N/A   Mostly Cloudy
7:15 AM 28.4 °F 23.3 °F 28.4 °F 100% 30.49 in 10.0 mi NE 4.6 mph - N/A   Overcast
7:35 AM 28.4 °F - 28.4 °F 100% 30.50 in 10.0 mi Calm Calm - N/A   Mostly Cloudy
7:55 AM 28.4 °F 24.6 °F 28.4 °F 100% 30.50 in 10.0 mi NE 3.5 mph - N/A   Overcast
8:35 AM 28.4 °F 23.3 °F 28.4 °F 100% 30.52 in 10.0 mi NNE 4.6 mph - N/A   Overcast
8:55 AM 30.2 °F - 30.2 °F 100% 30.52 in 10.0 mi Calm Calm - N/A   Scattered Clouds
9:15 AM 30.2 °F - 30.2 °F 100% 30.53 in 10.0 mi Calm Calm - N/A   Clear
9:35 AM 30.2 °F - 30.2 °F 100% 30.53 in 10.0 mi Calm Calm - N/A   Scattered Clouds
10:15 AM 33.8 °F - 32.0 °F 93% 30.52 in 10.0 mi Calm Calm - N/A   Scattered Clouds
10:35 AM 35.6 °F - 30.2 °F 81% 30.51 in 10.0 mi Calm Calm - N/A   Scattered Clouds
10:55 AM 33.8 °F - 30.2 °F 87% 30.50 in 10.0 mi Calm Calm - N/A   Mostly Cloudy
11:15 AM 37.4 °F - 32.0 °F 81% 30.50 in 10.0 mi Calm Calm - N/A   Scattered Clouds
11:35 AM 39.2 °F - 32.0 °F 75% 30.50 in 10.0 mi Calm Calm - N/A   Scattered Clouds
11:55 AM 39.2 °F 37.0 °F 33.8 °F 81% 30.49 in 10.0 mi SSE 3.5 mph - N/A   Mostly Cloudy
12:15 PM 39.2 °F 37.0 °F 33.8 °F 81% 30.49 in 10.0 mi SE 3.5 mph - N/A   Scattered Clouds
12:35 PM 37.4 °F 32.8 °F 33.8 °F 87% 30.49 in 10.0 mi South 5.8 mph - N/A   Scattered Clouds
12:55 PM 39.2 °F 35.0 °F 33.8 °F 81% 30.49 in 10.0 mi South 5.8 mph - N/A   Clear
1:15 PM 39.2 °F 35.9 °F 33.8 °F 81% 30.49 in 10.0 mi South 4.6 mph - N/A   Clear
1:35 PM 39.2 °F 35.0 °F 33.8 °F 81% 30.49 in 10.0 mi South 5.8 mph - N/A   Clear
1:55 PM 41.0 °F 39.0 °F 33.8 °F 76% 30.49 in 10.0 mi SSE 3.5 mph - N/A   Clear
2:15 PM 42.8 °F 40.1 °F 33.8 °F 70% 30.49 in 10.0 mi SSE 4.6 mph - N/A   Clear
2:35 PM 42.8 °F 39.3 °F 33.8 °F 70% 30.49 in 10.0 mi South 5.8 mph - N/A   Clear
2:55 PM 42.8 °F 40.1 °F 32.0 °F 66% 30.49 in 10.0 mi SSW 4.6 mph - N/A   Clear
3:15 PM 42.8 °F - 32.0 °F 66% 30.49 in 10.0 mi Calm Calm - N/A   Clear
3:35 PM 42.8 °F 41.1 °F 32.0 °F 66% 30.48 in 10.0 mi SSW 3.5 mph - N/A   Clear
3:55 PM 39.2 °F - 32.0 °F 75% 30.48 in 10.0 mi Calm Calm - N/A   Clear
4:15 PM 39.2 °F - 33.8 °F 81% 30.48 in 10.0 mi Calm Calm - N/A   Clear
4:35 PM 37.4 °F - 33.8 °F 87% 30.48 in 10.0 mi Calm Calm - N/A   Clear
4:55 PM 35.6 °F - 33.8 °F 93% 30.47 in 10.0 mi Calm Calm - N/A   Clear
5:15 PM 33.8 °F - 33.8 °F 100% 30.47 in 10.0 mi Calm Calm - N/A   Clear
5:35 PM 33.8 °F - 33.8 °F 100% 30.47 in 10.0 mi Calm Calm - N/A   Clear
5:55 PM 33.8 °F - 32.0 °F 93% 30.47 in 10.0 mi Calm Calm - N/A   Clear
6:15 PM 33.8 °F 30.8 °F 32.0 °F 93% 30.47 in 10.0 mi West 3.5 mph - N/A   Clear
6:55 PM 33.8 °F - 32.0 °F 93% 30.47 in 10.0 mi Calm Calm - N/A   Clear
7:15 PM 33.8 °F - 32.0 °F 93% 30.47 in 10.0 mi Calm Calm - N/A   Clear
7:35 PM 33.8 °F - 32.0 °F 93% 30.47 in 10.0 mi Calm Calm - N/A   Clear
7:55 PM 32.0 °F - 30.2 °F 93% 30.47 in 7.0 mi Calm Calm - N/A   Clear
8:35 PM 30.2 °F - 30.2 °F 100% 30.46 in 10.0 mi Calm Calm - N/A   Clear
8:55 PM 30.2 °F 26.7 °F 30.2 °F 100% 30.45 in 10.0 mi West 3.5 mph - N/A   Clear
9:35 PM 32.0 °F 27.5 °F 30.2 °F 93% 30.44 in 10.0 mi West 4.6 mph - N/A   Clear
9:55 PM 30.2 °F - 30.2 °F 100% 30.43 in 10.0 mi Calm Calm - N/A   Clear
10:15 PM 30.2 °F 25.4 °F 30.2 °F 100% 30.43 in 10.0 mi West 4.6 mph - N/A   Clear
10:35 PM 30.2 °F 26.7 °F 30.2 °F 100% 30.42 in 10.0 mi West 3.5 mph - N/A   Clear
10:55 PM 30.2 °F - 28.4 °F 93% 30.42 in 10.0 mi Calm Calm - N/A   Clear
11:15 PM 30.2 °F - 28.4 °F 93% 30.41 in 10.0 mi Calm Calm - N/A   Clear
11:35 PM 30.2 °F - 28.4 °F 93% 30.41 in 10.0 mi Calm Calm - N/A   Clear
11:55 PM 30.2 °F - 28.4 °F 93% 30.41 in 10.0 mi Calm Calm - N/A   Clear